This demonstration page uses our WeatherBlox Daily Observations layout. Learn more.

Left ArrowRight Arrow

39.12711, -84.51439

Hourly Observations for June 9, 2016

Temp ( °F °C ) Dew Point ( °F °C ) Humidity (%) Winds ( mph kmh ) Pressure ( in mb ) Visibility ( mi km ) Precip ( " mm )
12:53 am 00:53 Clear 52 11.1 50 10 93 93 NE 7 11 30.03 1017 10 16 0.00 0.00
1:53 am 01:53 Clear 52 11.1 50 10 93 93 Calm 30.04 1017 10 16 0.00 0.00
2:53 am 02:53 Clear 52 11.1 50 10 93 93 Calm 30.04 1017 10 16 0.00 0.00
3:53 am 03:53 Clear 49 9.4 49 9.4 100 100 ENE 3 6 30.05 1018 10 16 0.00 0.00
4:53 am 04:53 Clear 49 9.4 48 8.9 97 97 Calm 30.06 1018 10 16 0.00 0.00
5:53 am 05:53 Clear 49 9.4 49 9.4 100 100 ENE 3 6 30.07 1018 10 16 0.00 0.00
6:53 am 06:53 Sunny 50 10 50 10 100 100 Calm 30.09 1019 10 16 0.00 0.00
7:53 am 07:53 Sunny 55 12.8 54 12.2 96 96 Calm 30.11 1020 10 16 0.00 0.00
8:53 am 08:53 Sunny 62 16.7 56 13.3 80 80 Calm 30.11 1020 10 16 0.00 0.00
9:53 am 09:53 Sunny 68 20 56 13.3 65 65 Calm 30.11 1020 10 16 0.00 0.00
10:53 am 10:53 Sunny 70 21.1 52 11.1 53 53 Calm 30.11 1020 10 16 0.00 0.00
11:53 am 11:53 Sunny 74 23.3 48 8.9 40 40 VRB 3 6 30.10 1019 10 16 0.00 0.00
12:53 pm 12:53 Sunny 76 24.4 52 11.1 43 43 VRB 5 7 30.09 1019 10 16 0.00 0.00
1:53 pm 13:53 Sunny 77 25 50 10 39 39 VRB 3 6 30.07 1018 10 16 0.00 0.00
2:53 pm 14:53 Sunny 77 25 51 10.6 40 40 Calm 30.06 1018 10 16 0.00 0.00
3:53 pm 15:53 Sunny 78 25.6 53 11.7 42 42 WSW 7 11 30.04 1017 10 16 0.00 0.00
4:53 pm 16:53 Sunny 80 26.7 50 10 35 35 Calm 30.01 1016 10 16 0.00 0.00
5:53 pm 17:53 Sunny 80 26.7 48 8.9 33 33 Calm 30.01 1016 10 16 0.00 0.00
6:53 pm 18:53 Sunny 78 25.6 55 12.8 45 45 S 3 6 29.99 1016 10 16 0.00 0.00
7:53 pm 19:53 Sunny 73 22.8 56 13.3 55 55 SSE 7 11 30.00 1016 10 16 0.00 0.00
8:53 pm 20:53 Sunny 71 21.7 57 13.9 61 61 Calm 29.99 1016 10 16 0.00 0.00
9:53 pm 21:53 Clear 65 18.3 59 15 81 81 SSW 3 6 30.00 1016 10 16 0.00 0.00
10:53 pm 22:53 Clear 65 18.3 58 14.4 78 78 Calm 30.02 1017 10 16 0.00 0.00
11:53 pm 23:53 Mostly Clear 65 18.3 59 15 81 81 Calm 30.04 1017 10 16 0.00 0.00

Powered by AerisWeather